Regional Weather Roundup
Issued by NWS Wakefield, VA

Home | Current Version | Previous Version | Text Only | Print | Product List | Glossary Off
Versions: 1 2 3 4 5 6 7 8 9 10 11 12 13 14 15 16 17 18 19 20 21 22 23 24 25 26 27 28 29 30 31 32 33 34 35 36 37 38 39 40 41 42 43 44 45 46 47 48 49 50

000
ASUS41 KAKQ 211514
RWRAKQ

REGIONAL WEATHER ROUNDUP
NATIONAL WEATHER SERVICE WAKEFIELD VA
1000 AM EST TUE NOV 21 2017

Note: "fair" indicates few or no clouds below 12,000 feet with no
significant weather and/or obstructions to visibility. * = Denotes
station may not report precipitation (e.g., rain,snow,etc.),
thunder or fog.

VAZ042-051-052>054-056-211600-
NORTHERN VIRGINIA

CITY           SKY/WX    TMP DP  RH WIND       PRES   REMARKS
WASH NATIONAL  PTSUNNY   50  31  48 SW15      30.15F
DULLES         MOSUNNY   48  30  49 S10       30.13S
FORT BELVOIR   SUNNY     49  30  47 S5        30.15F
QUANTICO       MOSUNNY   52  38  58 S13       30.16F
FREDERICKSBRG* SUNNY     53  31  43 SW15      30.16S
STAFFORD*      SUNNY     53  29  39 S12G23    30.18F
WARRENTON      NOT AVBL
CULPEPER*      SUNNY     49  28  44 S8        30.14F
MANASSAS*      SUNNY     50  30  46 S8        30.14F
LEESBURG*      MOSUNNY   46  32  57 CALM      30.13S
WINCHESTER     CLOUDY    46  28  49 SW10G17   30.09S
FRONT ROYAL*   CLOUDY    52  27  37 SW6       30.08F
LURAY*         SUNNY     50  28  43 SW10      30.09F
$$

VAZ048-049-060>072-079>083-211600-
CENTRAL AND SOUTH CENTRAL VIRGINIA

CITY           SKY/WX    TMP DP  RH WIND       PRES   REMARKS
RICHMOND       PTSUNNY   50  31  48 S12       30.21F
CHESTERFIELD*  NOT AVBL
PETERSBURG*    SUNNY     48  10  21 S3        30.22F
HANOVER        SUNNY     53  30  41 S10       30.21S
TAPPAHANNOCK*    N/A    N/A N/A N/A MISG        N/A
QUINTON*       FAIR      50  32  50 SW6       30.22S
CHARLOTTSVILLE SUNNY     47  29  49 SW10G18   30.13F
GORDONSVILLE*  CLOUDY    44  30  56 SW9       30.14F
ORANGE*        SUNNY     43  30  61 S5        30.15F
LOUISA*        CLOUDY    49  29  45 S8        30.19F
BUMPASS*       FAIR      52  27  37 S8        30.17S
FARMVILLE*     SUNNY     50  33  51 S9        30.18S
CREWE*         FAIR      50  32  50 S5        30.19F
FORT PICKETT*  FAIR      53  33  46 S8        30.20F
CHASE CITY*    FAIR      50  32  50 S5        30.20S
CLARKSVILLE*   FAIR      46  34  61 CALM      30.21S
SOUTH HILL*    SUNNY     48  37  64 S6        30.28S
LAWRENCEVILLE* FAIR      49  34  56 S5        30.22S
EMPORIA*       SUNNY     48  36  61 S5        30.25S
$$

VAZ088>098-211600-
SOUTHEAST VIRGINIA

CITY           SKY/WX    TMP DP  RH WIND       PRES   REMARKS
NORFOLK        SUNNY     53  37  54 SW10      30.25F
VIRGINIA BEACH MOSUNNY   54  37  52 SW7       30.25F
NORFOLK NAVAL  PTSUNNY   53  36  52 SW10      30.27S
WEST POINT*    SUNNY     52  32  45 SW7       30.25S
SALUDA*        FAIR      50  33  51 S8        30.23S
NEWPORT NEWS   SUNNY     50  35  56 SW8       30.25F
LANGLEY AFB    MOSUNNY   51  36  55 SW13      30.25S
FORT EUSTIS    SUNNY     50  35  58 S6        30.22F
WILLIAMSBURG*  SUNNY     52  36  54 CALM      30.25S
HR EXEC AP*    NOT AVBL
FRANKLIN*      SUNNY     49  38  63 S5        30.26F
US460-WAKEFLD  SUNNY     50  35  56 SW3       30.24F
$$

VAZ020-022-025-037-045-211600-
WEST CENTRAL AND SOUTHWEST VIRGINIA

CITY           SKY/WX    TMP DP  RH WIND       PRES   REMARKS
STAUNTON*      SUNNY     46  28  49 S5        30.13S
WAYNESBORO*    MOSUNNY   46  31  55 SW13G18   30.11S
HOT SPRINGS VA CLOUDY    43   9  24 W18       30.09S
LYNCHBURG      CLOUDY    45  29  53 S12       30.17S
DANVILLE       MOSUNNY   46  32  58 VRB3      30.20S
SOUTH BOSTON*  FAIR      49  31  48 CALM      30.20F
MARTINSVILLE   CLOUDY    47  30  51 SW3       30.21S
ROANOKE        CLOUDY    39  31  72 CALM      30.18S
BLACKSBURG     CLOUDY    38  34  82 CALM      30.17S
DUBLIN*        CLOUDY    34  30  86 CALM      30.16S
MARION*        CLOUDY    36  29  76 CALM      30.16S
HILLSVILLE*    MOSUNNY   51  41  68 S7        30.13R
RICHLANDS*     FAIR      51  34  51 SW10G17   30.10S
WISE*          MOSUNNY   52  34  50 S13       30.10S
ABINGDON*      CLOUDY    44  28  54 E7        30.13R
$$

MDZ021>025-VAZ099-100-211600-
SOUTHERN MARYLAND AND THE DELMARVA PENINSULA

CITY           SKY/WX    TMP DP  RH WIND       PRES   REMARKS
PATUXENT RIVER MOSUNNY   52  29  41 SW18G29   30.19R
BAY BRIDGE APT SUNNY     52  32  46 SW13G22   30.16S
LEONARDTOWN    SUNNY     50  30  46 SW9G18    30.20S
DOVER          SUNNY     53  32  45 S16       30.16F
GEORGETOWN     SUNNY     53  37  54 SW14      30.20F
EASTON         SUNNY     54  30  40 S16       30.21S
CAMBRIDGE      SUNNY     52  32  46 SW10G23   30.20R
SALISBURY      SUNNY     53  40  61 SW13      30.22R
OCEAN CITY     SUNNY     53  38  56 SW9G18    30.23S
WALLOPS ISLAND PTSUNNY   53  35  50 SW13G22   30.24S
ACCOMACK*      MOSUNNY   54  35  48 SW10G23   30.25R
$$

NCZ012>017-030>032-211600-
NORTH CENTRAL AND EASTERN NORTH CAROLINA

CITY           SKY/WX    TMP DP  RH WIND       PRES   REMARKS
ROANOKE RAPIDS FAIR      48  39  71 SW3       30.24S
RALEIGH        CLOUDY    50  37  61 CALM      30.22S
ELIZABETH CITY SUNNY     56  46  69 W6        30.27R
AHOSKIE*       SUNNY     50  37  62 S5        30.26F
EDENTON*       SUNNY     55  43  64 CALM      30.28R
CURRITUCK*     SUNNY     52  43  70 W6        30.27S
KILL DEVIL HLS SUNNY     54  42  62 CALM      30.25S
MANTEO         SUNNY     55  43  63 SW3       30.27S
CAPE HATTERAS  SUNNY     63  48  58 CALM      30.27R
TARBORO*       NOT AVBL
GOLDSBORO      MOSUNNY   48  38  69 SE5       30.24S
WASHINGTON     CLOUDY    50  42  74 CALM      30.27S
GREENVILLE     CLOUDY    48  41  76 CALM      30.27S
NEW BERN       MOSUNNY   52  45  77 CALM      30.27S
WILMINGTON     CLOUDY    56  45  66 NE6       30.25R
$$

VAZ048-211600-
ELSEWHERE

CITY           SKY/WX    TMP DP  RH WIND       PRES   REMARKS
HARRISBURG PA  MOSUNNY   45  28  51 SW8       30.09F
BALTIMORE      PTSUNNY   51  30  44 SW14      30.13S
ANNAPOLIS      SUNNY     52  31  44 SW10G18   30.15S
ANDREWS AFB    SUNNY     51  28  41 SW12      30.13F
PHILADELPHIA   PTSUNNY   52  31  44 SW18G24   30.14F
HENDERSON NC   CLOUDY    47  32  56 S10       30.22S
GREENSBORO     CLOUDY    48  34  58 S7        30.20R
ROCKY MOUNT    CLOUDY    49  40  71 SE3       30.24F
$$

VAZ100-211600-
MARINE

STATION/POSITION TIME  TEMP    WIND        PRES    WAVE   SWELL
                       AIR SEA DIR/SP/G            HT/PER HT/PER
                 (UTC) (F)     (DEG/KT/KT) (MB)    (FT/S) (FT/S)
BRANDYWINE LGT   1442   49     230/ 20/ 22 1022.6S
CAPE MAY NJ      1442   50 48  220/ 14/ 19 1022.1S
LEWES DE         1442   52 52  230/  9/ 14 1022.3F
15NM E FENWICK I 1450   54 57  220/ 21/ 25 1023.2R   4/ 5
OCEAN-CITY-INLET 1442   49 54  220/ 13/ 17 1023.8S
WACHAPREAGUE VA  1442   55 49  210/  9/ 12 1024.1S
THOMAS POINT MD  1500   51 53  210/ 15/ 17   N/A
GOOSES REEF MD   1450   51     250/ 16/ 19 1029.8R
COVE POINT MD    1442   51     230/ 20/ 26 1022.4F
SOLOMONS ISLAND  1442   51 53  220/ 19/ 23 1021.8S
BISHOPS HEAD MD  1442   50 44  210/ 14/ 18 1023.3R
PINEY POINT MD   1436          240/ 11/ 15   N/A
POTOMAC MD       1450   51     220/ 16/ 19 1022.1F
CAMBRIDGE MD     1442   53 49              1022.8F
LEWISETTA VA     1442   50 49  230/ 14/ 17 1022.7S
RAPPAHANNOCK LGT 1436          210/ 16/ 17 1024.6R
STINGRAY PT      1450   51     250/ 12/ 14 1024.2R
YORK RVR RNG VA  1436   51     240/ 12/ 14 1024.7S
YORKTOWN VA      1436   50 54  230/ 10/ 14 1023.9R
JAMESTOWN VA     1450          180/  6/  8   N/A
DOMINION TERM VA 1436   47     220/  6/  8 1024.9R
KIPTOPEKE VA     1436      52  240/ 13/ 16   N/A
CAPE HENRY VA    1436   52     230/  6/ 12   N/A
WILLOUBY STN VA  1436   49     230/ 13/ 14 1024.4R
S CRANEY ISL VA  1436   51     240/  4/  7 1024.6S
CAPE HENRY BUOY  1430      60                N/A     2/ 3
1ST LANDING BUOY 1450   52     250/ 12/ 14 1024.7F
CAPE CHARLES BUO 1451      56                N/A     2/ 3
64NM E OF VA BCH 1450   59 61  240/ 12/ 14 1025.2R   2/ 8   2/ 8
DUCK PIER NC     1436   54 59  250/  5/  7 1024.4R
44100 DUCK FRF   1445      60                N/A     1/ 8
44056 DUCK FRF   1500      61                N/A     1/ 6
OREGON INLET NC  1436   57 53  180/  1/  2 1024.8F
HATTERAS NC      1436   58 57   30/  3/  4 1024.5S
DIAMOND SHLS NC  1450   68     180/ 12/ 17 1024.8S   2/ 8   2/ 8
CAPE LOOKOUT NC  1500           40/ 10/ 12 1024.4F
$$



USA.gov is the U.S. government's official web portal to all federal, state and local government web resources and services.